Powrót do katalogu

STARLINK-36097

AktywnyŁącznośćVLEO
NORAD 67091·PAYLOAD·🇺🇸 United States

Wystrzelony Dec 14, 2025 z Vandenberg Space Force Base

Loading…

Następne Przeloty (najbliższe 24 godziny)

TLE

ŚwieżeSource: CelesTrak SupGP

Epoka: Sep 15, 2026, 03:06 UTC

1 67091C 25298S   26258.12965278  .00023931  00000+0  30561-3 0  2585
2 67091  69.9830 224.2937 0007402 206.0442  55.1071 15.59029733    14

Śledź STARLINK-36097 w czasie rzeczywistym z AllMySat

Download on the App Store